Weather History for Ireland West Airport Knock, Ireland

Change the Weather History Date:

Tuesday, March 19, 2013

  Actual Average Record
Temperature  
Mean Temperature 33 °F -  
Max Temperature 37 °F - - ()
Min Temperature 29 °F - - ()
Degree Days  
Heating Degree Days 32    
Moisture  
Dew Point 30 °F    
Average Humidity 82    
Maximum Humidity 100    
Minimum Humidity 66    
Precipitation  
Precipitation 0.00 in - - ()
Sea Level Pressure  
Sea Level Pressure 29.51 in    
Wind  
Wind Speed 9 mph ()    
Max Wind Speed 14 mph    
Max Gust Speed 24 mph    
Visibility 6.4 miles    
Events Snow    
T = Trace of Precipitation, MM = Missing Value Source: Averaged Metar Reports

Daily Weather History Graph

Daily Weather History Graph

Search for Another Location

Airport:

Trip Planner

Search our weather history database for the weather conditions in past years. The results will help you decide how hot, cold, wet, or windy it might be!

Date:

Astronomy

Mar. 19, 2013 Rise Set
Actual Time 6:39 AM GMT 6:47 PM GMT
Civil Twilight 6:04 AM GMT 7:22 PM GMT
Nautical Twilight 5:23 AM GMT 8:04 PM GMT
Astronomical Twilight 4:39 AM GMT 8:47 PM GMT
Moon 10:28 AM GMT (3/19) 2:13 AM GMT (3/19)
Length of Visible Light 13h 17m
Length of Day
12h 07m
Waxing Crescent, 48% of the Moon is Illuminated
Mar 19
Waxing Crescent
Mar 19
First Quarter
Mar 27
Full
Apr 3
Last Quarter
Apr 10
New

Hourly Weather History & Observations

Time (GMT) Temp. Windchill Dew Point Humidity Pressure Visibility Wind Dir Wind Speed Gust Speed Precip Events Conditions
12:00 AM 34 °F - 30 °F 80% 29.53 in - NE 11.2 mph - -  
6:00 AM 30 °F - 27 °F 82% 29.56 in 16 mi NNE 8.9 mph - -   Scattered Clouds
8:00 AM 30.2 °F 22.6 °F 30.2 °F 100% 29.50 in 6.2 mi North 8.1 mph - N/A Snow Light Snow Showers
8:30 AM 32.0 °F 24.2 °F 30.2 °F 93% 29.50 in 6.2 mi North 9.2 mph - N/A Snow Light Snow Showers
9:00 AM 32.0 °F 23.6 °F 32.0 °F 100% 29.50 in 6.2 mi North 10.4 mph - N/A Snow Light Snow Showers
9:30 AM 32.0 °F 23.6 °F 32.0 °F 100% 29.50 in 3.1 mi North 10.4 mph - N/A Snow Light Snow
10:00 AM 33.8 °F 25.3 °F 30.2 °F 87% 29.50 in 3.7 mi NNE 11.5 mph - N/A Snow Light Snow
10:30 AM 33.8 °F 25.3 °F 28.4 °F 81% 29.50 in 6.2 mi NNE 11.5 mph - N/A Snow Light Snow
11:00 AM 33.8 °F 25.3 °F 28.4 °F 81% 29.50 in 6.2 mi NNE 11.5 mph - N/A Snow Light Snow
11:30 AM 35.6 °F 26.6 °F 32.0 °F 87% 29.50 in 6.2 mi NE 13.8 mph - N/A   Mostly Cloudy
12:00 PM 36 °F - 29 °F 66% 29.55 in 22 mi NE 13.4 mph - - Snow Light Snow Showers
12:00 PM 35.6 °F 27.1 °F 28.4 °F 75% 29.50 in 6.2 mi NE 12.7 mph - N/A   Mostly Cloudy
12:30 PM 35.6 °F 27.1 °F 30.2 °F 81% 29.50 in 6.2 mi NNE 12.7 mph 24.2 mph N/A   Mostly Cloudy
1:00 PM 35.6 °F 27.1 °F 30.2 °F 81% 29.50 in 6.2 mi NNE 12.7 mph - N/A   Mostly Cloudy
1:30 PM 37.4 °F 29.8 °F 30.2 °F 75% 29.50 in 6.2 mi NE 11.5 mph - N/A Snow Light Snow
2:00 PM 37.4 °F 30.3 °F 30.2 °F 75% 29.50 in 6.2 mi NE 10.4 mph - N/A   Mostly Cloudy
2:30 PM 37.4 °F 30.8 °F 30.2 °F 75% 29.50 in 6.2 mi NNE 9.2 mph - N/A   Mostly Cloudy
3:00 PM 37.4 °F 29.8 °F 30.2 °F 75% 29.50 in 6.2 mi NE 11.5 mph - N/A   Mostly Cloudy
3:30 PM 37.4 °F 29.8 °F 30.2 °F 75% 29.50 in 6.2 mi NNE 11.5 mph - N/A   Mostly Cloudy
4:00 PM 37.4 °F 30.8 °F 30.2 °F 75% 29.50 in 6.2 mi NNE 9.2 mph - N/A   Mostly Cloudy
4:30 PM 35.6 °F 29.9 °F 30.2 °F 81% 29.50 in 6.2 mi NNE 6.9 mph - N/A   Mostly Cloudy
5:00 PM 37.4 °F 32.1 °F 30.2 °F 75% 29.50 in 6.2 mi North 6.9 mph - N/A   Mostly Cloudy
5:30 PM 35.6 °F 29.2 °F 30.2 °F 81% 29.50 in 6.2 mi NNE 8.1 mph - N/A   Mostly Cloudy
6:00 PM 35 °F - 31 °F 79% 29.55 in 25 mi North 6.7 mph - -   Partly Cloudy
6:00 PM 35.6 °F 29.9 °F 30.2 °F 81% 29.50 in 6.2 mi North 6.9 mph - N/A   Mostly Cloudy
6:30 PM 35.6 °F 29.2 °F 30.2 °F 81% 29.50 in 6.2 mi North 8.1 mph - N/A   Mostly Cloudy